Location: Lobstick
(53.6000°N, 115.1667°W)
Time: 14:21:19
(UTC+00:00)

Gurwin Techsat 1B - Pass Details

Date: 05 December 2023
Orbit: 810 x 813 km, 98.9° (Epoch: 28 February)

Event Time Altitude Azimuth Distance (km) Brightness Sun altitude
Rises 13:17:42 0° 9° (N) 3,351 11.8 -19.8°
Reaches altitude 10° 13:20:51 10° 349° (N) 2,415 10.9 -19.3°
Enters shadow 13:21:45 13° 341° (NNW) 2,220 10.6 -19.2°
